Location: Bagnara
(41.0500°N, 14.7833°E)
Time: 11:42:43
(UTC+00:00)

USA 307 - Pass Details

Date: 20 June 2021
Orbit: 565 x 576 km, 54.0° (Epoch: 17 July)

Event Time Altitude Azimuth Distance (km) Brightness Sun altitude
Exits shadow 00:37:18 75° 209° (SSW) 590 2.7 -21.9°
Maximum altitude 00:37:38 85° 138° (SE) 574 2.7 -21.8°
Drops below altitude 10° 00:41:53 10° 51° (NE) 1,867 6.4 -21.5°
Sets 00:44:08 0° 51° (NE) 2,765 7.5 -21.3°
